Regional Weather Roundup
Issued by NWS Kansas City/Pleasant Hill, MO

Home | Current Version | Previous Version | Graphics & Text | Print | Product List | Glossary Off
Versions: 1 2 3 4 5 6 7 8 9 10 11 12 13 14 15 16 17 18 19 20 21 22 23 24 25 26 27 28 29 30 31 32 33 34 35 36 37 38 39 40 41 42 43 44 45 46 47 48 49 50

000
ASUS43 KEAX 061910
RWREAX

WEATHER ROUNDUP FOR EASTERN KANSAS AND NORTHWEST MISSOURI
NATIONAL WEATHER SERVICE KANSAS CITY/PLEASANT HILL MO
200 PM CDT WED MAY 06 2015

KSZ040-057-103>105-MOZ028-029-037-043-062000-
...KANSAS CITY METROPOLITAN AREA...

CITY           SKY/WX    TMP DP  RH WIND       PRES   REMARKS
K.C. INTL      CLOUDY    73  61  65 S16G26    29.95F
K.C. DOWNTOWN  CLOUDY    75  60  59 S9G21     29.94F
LEES SUMMIT    CLOUDY    72  60  66 S12G22    29.96F
OLATHE - IXD   CLOUDY    71  59  65 S24G35    29.96F
OLATHE - OJC   PTSUNNY   72  60  66 S20G28    29.94F
LAWRENCE       CLOUDY    73  60  63 S21       29.92F

$$

MOZ001>008-011>017-020>025-030>033-038>040-044>046-053-054-062000-
...NORTHERN AND CENTRAL MISSOURI...

CITY           SKY/WX    TMP DP  RH WIND       PRES   REMARKS
ST. JOSEPH     CLOUDY    68  60  75 S10       29.93F
MOSBY          CLOUDY    70  59  68 S12G17    29.97F
WARRENSBURG    CLOUDY    72  59  64 SE17G25   30.00F
WHITEMAN AFB   PTSUNNY   69  62  79 S17G24    30.00F
CLINTON        CLOUDY    70  64  83 SE13G18   30.03S
SEDALIA        CLOUDY    68  61  78 S13       30.04S
WARSAW         NOT AVBL
MARSHALL       CLOUDY    72  63  73 S10       30.03F
CHILLICOTHE      N/A     69  61  75 S9G20     30.02R
MOBERLY        PTSUNNY   75  54  46 SW20      30.04R
KIRKSVILLE     LGT RAIN  71  59  65 SW7       30.03R

$$

MOZ041-047>049-056>058-063>065-088>090-097-062000-
...EASTERN AND SOUTHERN MISSOURI...

CITY           SKY/WX    TMP DP  RH WIND       PRES   REMARKS
ST. LOUIS INTL MOSUNNY   86  53  32 S12G24    30.07F
SPIRIT OF STL  MOSUNNY   84  52  33 S10G22    30.05F
COLUMBIA       PTSUNNY   77  57  50 S15       30.03F
JEFFERSON CITY PTSUNNY   80  54  40 S18G24    30.02F
MEXICO         PTSUNNY   84  61  45 S17G23    30.04F
ROLLA          PTSUNNY   77  60  55 S8        30.05F
LEBANON        PTSUNNY   77  55  47 S12       30.05F
OSAGE BEACH    CLOUDY    79  55  44 S8G22     30.03F
SPRINGFIELD    CLOUDY    72  61  68 S17       30.03F
BRANSON        PTSUNNY   75  57  53 S16G25    30.06F
NEVADA         CLOUDY    72  59  64 SE16G24   29.99F
JOPLIN         MOSUNNY   77  59  53 S24G30    29.97F
WEST PLAINS    PTSUNNY   78  55  44 S14       30.09F

$$

IAZ060-094-KSZ022-034>040-054-083-096-NEZ052-066-093-062000-
...KANSAS...SOUTHEAST NEBRASKA AND IOWA...

CITY           SKY/WX    TMP DP  RH WIND       PRES   REMARKS
TOPEKA         CLOUDY    72  61  68 SE20      29.90F
MANHATTAN      CLOUDY    72  63  73 S25G33    29.82F
EMPORIA        CLOUDY    68  62  81 S28G35    29.88F
CHANUTE        CLOUDY    72  63  73 S16G29    29.93F
WICHITA        PTSUNNY   72  65  78 SE24G32   29.80F
OMAHA          LGT RAIN  68  62  81 S15G24    29.83F
LINCOLN        CLOUDY    67  61  81 S20G29    29.80F
FALLS CITY     CLOUDY    68  62  81 SE20G26   29.88F
LAMONI         CLOUDY    72  58  61 S22G31    29.96S
DES MOINES     CLOUDY    76  58  53 S20       29.93F

$$




USA.gov is the U.S. government's official web portal to all federal, state and local government web resources and services.